Location: Killam
(52.7910°N, 111.8608°W)
Time: 00:50:59
(UTC+00:00)

A-11 Canister half - Pass Details

Date: 19 February 2026
Orbit: 1525 x 1683 km, 47.3° (Epoch: 9 March)

Event Time Altitude Azimuth Distance (km) Brightness Sun altitude
Rises 00:56:38 0° 241° (WSW) 4,709 13.6 -2.4°
Reaches altitude 10° 00:59:46 10° 237° (WSW) 3,713 12.6 -2.8°
Maximum altitude 01:08:46 56° 163° (SSE) 1,778 9.4 -4.2°
Drops below altitude 10° 01:17:43 10° 89° (E) 3,700 10.4 -5.5°
Enters shadow 01:18:56 - 87° (E) 4,084 10.6 -5.7°
Sets 01:20:50 0° 85° (E) 4,692 - -5.9°
